#timestamp,LO_Frequency,Hit,StdDev 
1558105215.1,286046996.2,N
1558105235.9,286046995.2,N
1558105255.7,286046994.9,N
1558105275.5,286046997.5,N
1558105295.4,286046995.1,N
1558105315.2,286046995.3,N
1558105335.1,286046996.2,N
1558105336.0,286046996.2,N
1558105355.8,286046996.2,N
1558105375.6,286046995.7,N
1558105395.5,286046994.2,Y
1558105415.3,286046997.8,P
1558105435.2,286046996.9,P
1558105455.9,286046999.2,N
1558105475.7,286046999.4,N
1558105495.6,286046998.8,N
1558105515.4,286046996.6,Y
1558105535.3,286047000.4,P
1558105555.1,286047000.4,N
1558105556.0,286047000.4,N
1558105575.8,286047000.3,N
1558105595.7,286047001.0,N
1558105645.5,286047004.0,E
1558105655.4,286047001.6,N
1558105675.3,286046998.5,P
1558105695.1,286046998.1,N
1558105715.8,286046998.3,N
1558105735.7,286046999.3,N
1558105755.5,286046997.0,N
1558105775.3,286046999.0,N
1558105795.2,286046996.8,N
1558105815.0,286046997.8,N
1558105815.9,286046997.8,N
1558105835.8,286046995.0,Y
1558105855.6,286046995.3,P
1558105875.4,286046994.9,P
1558105895.3,286046995.6,N
1558105915.1,286046995.4,Y
1558105935.9,286047002.2,P
1558105955.7,286047000.2,N
1558105975.5,286047002.0,N
1558105995.4,286047004.0,N
1558106015.2,286047001.7,N
1558106035.0,286047004.0,N
1558106035.9,286047004.0,N
1558106055.8,286047004.1,N
1558106075.6,286047004.0,N
1558106095.4,286047003.3,N
1558106115.3,286047002.1,N
1558106135.1,286047001.8,N
1558106155.9,286047001.8,N
1558106175.7,286047002.1,N
1558106195.5,286047002.6,N
1558106215.4,286046999.9,N
1558106235.2,286047002.2,N
1558106255.0,286046998.6,N
1558106256.0,286046998.6,N
1558106275.8,286047000.5,N
1558106295.6,286046998.5,N
1558106315.5,286046998.5,N
1558106335.3,286046998.7,N
1558106355.1,286047001.2,N
1558106375.9,286047001.2,N
1558106395.7,286046996.9,N
1558106415.5,286046999.5,N
1558106435.4,286046999.1,N
1558106455.2,286047001.0,N
1558106475.1,286046998.5,N
1558106476.0,286046998.5,N
1558106495.8,286047002.4,N
1558106515.6,286047002.8,N
1558106535.5,286047002.6,N
1558106555.3,286047002.2,N
1558106575.1,286047000.6,N
1558106595.9,286047000.8,N
1558106615.7,286046998.2,N
1558106635.6,286047001.2,N
1558106655.4,286047002.2,N
1558106675.2,286047001.3,N
1558106695.1,286047002.0,N
1558106696.0,286047002.0,N
1558106715.8,286047001.4,N
1558106735.6,286047001.4,N
1558106755.5,286047001.9,N
1558106775.3,286047001.8,N
1558106795.2,286047002.0,N
1558106815.9,286047002.8,N
1558106835.7,286046999.8,N
1558106855.6,286046998.5,N
1558106875.4,286046996.6,N
1558106895.2,286046996.7,N
1558106915.1,286046996.7,N
1558106916.0,286046996.7,N
1558106935.8,286046996.5,N
1558106955.7,286046996.6,N
1558106975.5,286046999.2,N
1558106995.3,286046996.5,N
1558107015.2,286046999.4,N
1558107035.0,286046996.8,N
1558107035.9,286046996.8,N
1558107055.8,286046998.3,N
1558107075.6,286046999.5,N
1558107095.4,286046998.5,N
1558107115.3,286046999.0,N
1558107135.1,286046996.6,N
1558107155.8,286046997.1,N
1558107175.7,286046996.5,N
1558107195.5,286046998.9,N
1558107215.4,286047002.7,N
1558107235.2,286047002.8,N
1558107255.0,286047002.5,N
1558107255.9,286047002.5,N
1558107275.8,286047000.9,N
1558107295.6,286047002.2,N
1558107315.4,286047002.7,N
1558107335.3,286047000.3,N
1558107355.1,286046998.2,N
1558107375.9,286047001.1,N
1558107395.7,286047001.0,N
1558107415.5,286047000.9,N
1558107435.4,286046998.3,N
1558107455.2,286046999.3,N
1558107475.0,286046999.2,N
1558107475.9,286046999.2,N
1558107495.8,286046995.0,N
1558107515.6,286046995.2,N
1558107535.5,286046995.8,N
1558107555.3,286046995.7,N
1558107575.1,286046995.4,N
1558107595.9,286046995.3,N
1558107615.7,286046995.4,N
1558107635.5,286046996.8,N
1558107655.4,286046999.0,N
1558107675.2,286046999.2,N
1558107695.1,286046996.5,N
1558107696.0,286046996.5,N
1558107715.8,286046997.7,N
1558107735.6,286046994.9,N
1558107755.5,286046997.0,N
1558107775.3,286046997.2,N
1558107795.1,286046999.6,N
1558107815.9,286046999.1,N
1558107835.7,286046999.1,N
1558107855.6,286046999.1,N
1558107875.4,286046997.1,N
1558107895.2,286046996.6,N
1558107915.1,286046998.0,N
1558107916.0,286046998.0,N
1558107935.8,286046995.7,N
1558107955.6,286046995.1,N
1558107975.5,286046995.0,Y
1558107995.3,286046999.0,P
1558108015.2,286046999.9,N
1558108035.9,286047000.4,N
1558108055.7,286047001.7,N
1558108075.6,286046999.7,N
1558108095.4,286047002.1,N
1558108115.2,286047002.2,N
1558108135.1,286047002.3,N
1558108136.0,286047002.3,N
1558108155.8,286047001.6,N
1558108175.7,286046999.7,N
1558108195.5,286047002.7,N
1558108215.3,286047001.6,N
1558108235.2,286047004.4,N
1558108255.0,286047002.7,N
1558108255.9,286047002.7,N
1558108275.8,286047002.7,N
1558108295.6,286046999.9,N
1558108315.4,286047000.0,N
1558108335.3,286047000.4,N
1558108355.1,286047003.5,N
1558108375.8,286047003.8,N
1558108395.7,286047003.4,N
1558108415.5,286047005.9,Y
1558108435.4,286047001.6,P
1558108455.2,286047002.7,P
1558108475.0,286047001.8,P
1558108475.9,286047001.8,Y
1558108495.8,286047002.3,P
1558108515.6,286047000.5,N
1558108535.4,286047000.2,N
1558108555.3,286046999.7,N
1558108575.1,286047000.2,N
1558108595.9,286047000.3,N
1558108615.7,286047001.0,N
1558108635.5,286046998.1,N
1558108655.4,286047000.9,N
1558108675.2,286046999.0,N
1558108695.0,286046997.2,N
1558108695.9,286046997.2,N
1558108715.8,286046997.3,N
1558108735.6,286046999.1,N
1558108755.5,286046996.5,N
1558108775.3,286046998.5,N
1558108795.1,286046996.6,N
